Radiation Dose at Monitoring Post of Fukushima Daini Nuclear Power Station
Date,Time,MP-1(microSv/h),MP-2(microSv/h),MP-3(microSv/h),MP-4(microSv/h),MP-5(microSv/h),MP-6(microSv/h),MP-7(microSv/h),Wind Direction,Wind Velocity(m/s),Rain
2019/06/14,00:00,0.192,0.174,0.291,0.272,0.270,0.146,0.089,south-southwest,5.3,No
2019/06/14,00:10,0.190,0.174,0.289,0.273,0.269,0.145,0.090,south-southwest,4.9,No
2019/06/14,00:20,0.192,0.174,0.293,0.274,0.271,0.146,0.089,south-southwest,4.5,No
2019/06/14,00:30,0.190,0.174,0.290,0.274,0.269,0.144,0.090,south-southwest,3.7,No
2019/06/14,00:40,0.192,0.175,0.292,0.273,0.271,0.145,0.089,south-southwest,4.3,No
2019/06/14,00:50,0.191,0.173,0.291,0.274,0.269,0.145,0.089,south-southwest,5.5,No
2019/06/14,01:00,0.192,0.175,0.293,0.273,0.271,0.145,0.090,south-southwest,5.7,No
2019/06/14,01:10,0.190,0.175,0.290,0.274,0.269,0.144,0.090,south-southwest,5.1,No
2019/06/14,01:20,0.191,0.174,0.291,0.272,0.271,0.146,0.089,south-southwest,5.3,No
2019/06/14,01:30,0.190,0.174,0.290,0.274,0.270,0.146,0.089,south-southwest,5.1,No
2019/06/14,01:40,0.192,0.174,0.292,0.273,0.271,0.146,0.090,south-southwest,4.4,No
2019/06/14,01:50,0.190,0.173,0.290,0.273,0.271,0.145,0.089,south-southwest,4.8,No
2019/06/14,02:00,0.192,0.175,0.292,0.273,0.271,0.145,0.089,southwest,3.7,No
2019/06/14,02:10,0.190,0.175,0.291,0.274,0.269,0.145,0.089,south-southwest,3.5,No
2019/06/14,02:20,0.193,0.174,0.292,0.273,0.271,0.146,0.090,southwest,3.8,No
2019/06/14,02:30,0.191,0.176,0.292,0.275,0.269,0.146,0.090,southwest,3.8,No
2019/06/14,02:40,0.191,0.174,0.292,0.274,0.270,0.146,0.089,southwest,4.9,No
2019/06/14,02:50,0.190,0.175,0.291,0.274,0.270,0.145,0.089,southwest,6.2,No
2019/06/14,03:00,0.191,0.174,0.292,0.273,0.272,0.146,0.090,southwest,4.9,No
2019/06/14,03:10,0.192,0.174,0.291,0.273,0.269,0.144,0.090,southwest,4.2,No
2019/06/14,03:20,0.192,0.175,0.290,0.275,0.271,0.145,0.090,southwest,4.3,No
2019/06/14,03:30,0.191,0.174,0.292,0.272,0.269,0.145,0.089,southwest,5.1,No
2019/06/14,03:40,0.191,0.174,0.292,0.275,0.271,0.146,0.090,southwest,4.9,No
2019/06/14,03:50,0.191,0.174,0.292,0.273,0.270,0.145,0.090,west-southwest,4.5,No
2019/06/14,04:00,0.192,0.174,0.290,0.273,0.271,0.145,0.089,west-southwest,4.6,No
2019/06/14,04:10,0.190,0.175,0.292,0.273,0.269,0.146,0.090,southwest,4.0,No
2019/06/14,04:20,0.191,0.174,0.292,0.275,0.271,0.145,0.090,southwest,3.9,No
2019/06/14,04:30,0.191,0.174,0.292,0.272,0.270,0.145,0.090,southwest,4.5,No
2019/06/14,04:40,0.191,0.174,0.292,0.273,0.270,0.145,0.090,southwest,3.7,No
2019/06/14,04:50,0.191,0.175,0.291,0.274,0.269,0.145,0.090,southwest,4.0,No
2019/06/14,05:00,0.191,0.174,0.291,0.272,0.270,0.144,0.089,southwest,4.4,No
2019/06/14,05:10,0.191,0.175,0.291,0.274,0.271,0.145,0.090,southwest,5.1,No
2019/06/14,05:20,0.192,0.175,0.294,0.271,0.269,0.145,0.091,southwest,4.8,No
2019/06/14,05:30,0.192,0.175,0.290,0.273,0.268,0.145,0.090,southwest,4.8,No
2019/06/14,05:40,0.191,0.174,0.293,0.272,0.271,0.145,0.090,southwest,4.1,No
2019/06/14,05:50,0.192,0.176,0.291,0.275,0.268,0.145,0.090,south-southwest,1.6,No
2019/06/14,06:00,0.191,0.174,0.292,0.273,0.270,0.146,0.090,south,2.0,No
2019/06/14,06:10,0.193,0.175,0.291,0.275,0.270,0.146,0.090,south,1.0,No
2019/06/14,06:20,0.191,0.173,0.294,0.273,0.269,0.146,0.090,south-southeast,1.3,No
2019/06/14,06:30,0.192,0.173,0.291,0.274,0.269,0.146,0.091,south-southeast,1.8,No
2019/06/14,06:40,0.191,0.175,0.293,0.273,0.271,0.146,0.091,south-southeast,2.3,No
2019/06/14,06:50,0.192,0.174,0.289,0.275,0.268,0.145,0.089,south,3.4,No
2019/06/14,07:00,0.191,0.173,0.293,0.273,0.273,0.146,0.089,south,3.9,No
2019/06/14,07:10,0.190,0.174,0.291,0.271,0.269,0.145,0.090,south,3.7,No
2019/06/14,07:20,0.192,0.175,0.288,0.274,0.270,0.146,0.091,south-southeast,6.2,No
2019/06/14,07:30,0.190,0.174,0.287,0.272,0.272,0.145,0.089,south,7.0,No
2019/06/14,07:40,0.192,0.172,0.291,0.270,0.270,0.145,0.088,south-southeast,7.1,No
2019/06/14,07:50,0.189,0.174,0.291,0.272,0.266,0.145,0.089,south-southeast,7.5,No
2019/06/14,08:00,0.190,0.173,0.288,0.273,0.269,0.145,0.089,south-southeast,7.3,No
2019/06/14,08:10,0.192,0.174,0.287,0.272,0.270,0.145,0.089,south-southeast,7.7,No
2019/06/14,08:20,0.191,0.173,0.287,0.271,0.267,0.146,0.089,south-southeast,8.5,No
2019/06/14,08:30,0.190,0.173,0.288,0.269,0.266,0.145,0.090,south-southeast,8.7,No
2019/06/14,08:40,0.192,0.172,0.288,0.269,0.269,0.145,0.089,south-southeast,10.0,No
2019/06/14,08:50,0.191,0.175,0.291,0.270,0.271,0.145,0.090,south-southeast,10.9,No
2019/06/14,09:00,0.190,0.175,0.292,0.271,0.268,0.145,0.089,south-southeast,11.5,No
2019/06/14,09:10,0.189,0.174,0.291,0.272,0.267,0.144,0.089,south-southeast,11.1,No
2019/06/14,09:20,0.190,0.173,0.289,0.275,0.266,0.145,0.089,south-southeast,10.9,No
2019/06/14,09:30,0.191,0.173,0.288,0.273,0.271,0.146,0.089,south-southeast,11.6,No
2019/06/14,09:40,0.191,0.173,0.291,0.271,0.269,0.145,0.089,south-southeast,12.3,No
2019/06/14,09:50,0.189,0.175,0.293,0.271,0.269,0.145,0.090,south-southeast,12.2,No
2019/06/14,10:00,0.188,0.175,0.290,0.269,0.267,0.144,0.088,south-southeast,11.8,No
2019/06/14,10:10,0.188,0.173,0.288,0.268,0.268,0.146,0.089,south-southeast,10.6,No
2019/06/14,10:20,0.189,0.173,0.293,0.270,0.272,0.144,0.089,south-southeast,11.2,No
2019/06/14,10:30,0.193,0.172,0.293,0.272,0.270,0.144,0.091,south-southeast,13.6,No
2019/06/14,10:40,0.191,0.174,0.291,0.275,0.269,0.145,0.090,south-southeast,11.0,No
2019/06/14,10:50,0.190,0.175,0.290,0.275,0.267,0.145,0.088,south,13.5,No
2019/06/14,11:00,0.189,0.175,0.288,0.273,0.268,0.146,0.089,south-southeast,13.4,No
2019/06/14,11:10,0.189,0.175,0.288,0.272,0.271,0.145,0.090,south-southeast,11.8,No
2019/06/14,11:20,0.188,0.173,0.287,0.271,0.271,0.144,0.089,south-southeast,12.6,No
2019/06/14,11:30,0.189,0.171,0.288,0.271,0.270,0.145,0.089,south-southeast,11.8,No
2019/06/14,11:40,0.189,0.174,0.288,0.271,0.268,0.146,0.089,south-southeast,12.0,No
2019/06/14,11:50,0.191,0.176,0.289,0.274,0.268,0.145,0.089,south-southeast,11.4,No
2019/06/14,12:00,0.192,0.175,0.289,0.276,0.272,0.144,0.090,south-southeast,11.5,No
2019/06/14,12:10,0.191,0.173,0.293,0.274,0.271,0.145,0.089,south-southeast,10.7,No
2019/06/14,12:20,0.190,0.173,0.294,0.273,0.270,0.145,0.089,south-southeast,11.7,No
2019/06/14,12:30,0.189,0.174,0.292,0.272,0.268,0.145,0.090,south-southeast,11.2,No
2019/06/14,12:40,0.189,0.175,0.292,0.271,0.268,0.145,0.090,south-southeast,12.4,No
2019/06/14,12:50,0.189,0.175,0.290,0.273,0.272,0.145,0.089,south-southeast,11.2,No
2019/06/14,13:00,0.189,0.173,0.290,0.276,0.270,0.146,0.089,south-southeast,10.9,No
2019/06/14,13:10,0.190,0.173,0.290,0.275,0.268,0.146,0.089,south-southeast,11.1,No
2019/06/14,13:20,0.192,0.173,0.290,0.273,0.269,0.146,0.089,south-southeast,12.9,No
2019/06/14,13:30,0.192,0.175,0.289,0.273,0.268,0.145,0.089,south-southeast,11.3,No
2019/06/14,13:40,0.191,0.175,0.290,0.272,0.272,0.145,0.089,south-southeast,11.7,No
2019/06/14,13:50,0.190,0.176,0.290,0.272,0.272,0.146,0.090,south-southeast,11.5,No
2019/06/14,14:00,0.189,0.174,0.291,0.275,0.269,0.147,0.090,south-southeast,11.2,No
2019/06/14,14:10,0.191,0.173,0.290,0.276,0.270,0.145,0.090,south-southeast,10.7,No
2019/06/14,14:20,0.189,0.173,0.292,0.276,0.268,0.145,0.089,south,11.7,No
2019/06/14,14:30,0.189,0.175,0.295,0.273,0.267,0.145,0.090,south,13.5,No
2019/06/14,14:40,0.190,0.176,0.294,0.274,0.267,0.145,0.090,south,12.5,No
2019/06/14,14:50,0.189,0.175,0.294,0.273,0.270,0.146,0.089,south,11.0,No
2019/06/14,15:00,0.190,0.174,0.291,0.276,0.272,0.146,0.089,south-southeast,10.9,No
2019/06/14,15:10,0.190,0.172,0.291,0.274,0.271,0.145,0.088,south,11.0,No
2019/06/14,15:20,0.190,0.173,0.290,0.274,0.270,0.146,0.090,south,12.7,Yes
2019/06/14,15:30,0.192,0.175,0.290,0.277,0.267,0.146,0.090,south,11.8,No
2019/06/14,15:40,0.192,0.176,0.294,0.276,0.271,0.146,0.089,south,12.9,No
2019/06/14,15:50,0.192,0.173,0.294,0.274,0.273,0.145,0.090,south-southeast,11.6,No
2019/06/14,16:00,0.190,0.175,0.291,0.278,0.271,0.145,0.089,south-southeast,11.5,No
2019/06/14,16:10,0.191,0.175,0.293,0.276,0.270,0.145,0.090,south-southeast,12.2,No
2019/06/14,16:20,0.194,0.175,0.293,0.273,0.270,0.146,0.089,south-southeast,12.4,No
2019/06/14,16:30,0.191,0.174,0.292,0.278,0.274,0.145,0.089,south-southeast,12.1,No
2019/06/14,16:40,0.189,0.175,0.294,0.275,0.271,0.146,0.089,south,11.5,No
2019/06/14,16:50,0.192,0.174,0.294,0.274,0.269,0.146,0.091,south-southeast,11.1,No
2019/06/14,17:00,0.192,0.176,0.293,0.278,0.272,0.146,0.090,south,12.6,No
2019/06/14,17:10,0.190,0.176,0.294,0.276,0.273,0.146,0.089,south,10.7,No
2019/06/14,17:20,0.193,0.175,0.292,0.276,0.269,0.146,0.091,south,10.6,No
2019/06/14,17:30,0.192,0.176,0.292,0.275,0.271,0.145,0.090,south,10.7,No
2019/06/14,17:40,0.192,0.174,0.295,0.274,0.272,0.146,0.090,south,11.0,No
2019/06/14,17:50,0.192,0.175,0.292,0.276,0.270,0.146,0.090,south,9.3,No
2019/06/14,18:00,0.193,0.176,0.295,0.275,0.274,0.145,0.090,south,9.2,No
2019/06/14,18:10,0.192,0.174,0.295,0.275,0.270,0.147,0.090,south,10.0,No
2019/06/14,18:20,0.193,0.176,0.292,0.276,0.271,0.146,0.090,south,10.3,No
2019/06/14,18:30,0.192,0.175,0.294,0.274,0.273,0.146,0.090,south,10.1,No
2019/06/14,18:40,0.193,0.175,0.293,0.276,0.269,0.147,0.090,south,8.1,No
2019/06/14,18:50,0.193,0.175,0.292,0.275,0.272,0.145,0.090,south,8.7,No
2019/06/14,19:00,0.191,0.175,0.293,0.276,0.271,0.146,0.089,south,7.6,No
2019/06/14,19:10,0.194,0.176,0.292,0.276,0.271,0.146,0.089,south,6.2,No
2019/06/14,19:20,0.191,0.175,0.296,0.275,0.273,0.146,0.089,south,7.6,No
2019/06/14,19:30,0.191,0.174,0.292,0.277,0.268,0.146,0.090,south,7.7,No
2019/06/14,19:40,0.192,0.174,0.293,0.274,0.273,0.146,0.090,south,7.6,No
2019/06/14,19:50,0.191,0.175,0.293,0.275,0.270,0.146,0.090,south,7.1,No
2019/06/14,20:00,0.194,0.175,0.295,0.275,0.272,0.147,0.090,south,7.0,No
2019/06/14,20:10,0.192,0.175,0.294,0.275,0.271,0.145,0.091,south,7.8,No
2019/06/14,20:20,0.191,0.175,0.293,0.277,0.269,0.146,0.089,south,7.7,No
2019/06/14,20:30,0.192,0.176,0.295,0.274,0.273,0.146,0.090,south,7.1,No
2019/06/14,20:40,0.191,0.176,0.292,0.277,0.270,0.146,0.089,south,8.1,No
2019/06/14,20:50,0.193,0.175,0.294,0.275,0.272,0.146,0.090,south,7.8,No
2019/06/14,21:00,0.191,0.175,0.292,0.276,0.269,0.146,0.090,south,8.1,No
2019/06/14,21:10,0.193,0.175,0.295,0.276,0.271,0.147,0.090,south,8.1,No
2019/06/14,21:20,0.192,0.175,0.293,0.275,0.270,0.145,0.090,south,8.9,No
2019/06/14,21:30,0.191,0.175,0.293,0.276,0.272,0.146,0.089,south-southwest,7.6,No
2019/06/14,21:40,0.193,0.176,0.294,0.274,0.272,0.146,0.090,south,7.6,No
2019/06/14,21:50,0.191,0.175,0.292,0.278,0.271,0.146,0.090,south,7.4,No
2019/06/14,22:00,0.193,0.176,0.295,0.275,0.272,0.146,0.090,south,7.4,No
2019/06/14,22:10,0.192,0.176,0.291,0.276,0.269,0.146,0.089,south,6.8,No
2019/06/14,22:20,0.191,0.176,0.295,0.275,0.273,0.146,0.090,south,7.1,No
2019/06/14,22:30,0.192,0.175,0.293,0.275,0.270,0.146,0.090,south,7.3,No
2019/06/14,22:40,0.191,0.174,0.295,0.275,0.272,0.147,0.089,south,7.3,No
2019/06/14,22:50,0.194,0.176,0.294,0.275,0.270,0.146,0.089,south-southwest,6.8,No
2019/06/14,23:00,0.190,0.174,0.293,0.277,0.270,0.145,0.090,south,6.0,No
2019/06/14,23:10,0.193,0.175,0.295,0.273,0.272,0.147,0.090,south,5.6,No
2019/06/14,23:20,0.191,0.175,0.293,0.277,0.270,0.146,0.090,south,6.3,No
2019/06/14,23:30,0.192,0.176,0.295,0.276,0.273,0.147,0.090,south,5.7,No
2019/06/14,23:40,0.193,0.175,0.292,0.277,0.269,0.147,0.089,south,5.9,No
2019/06/14,23:50,0.191,0.175,0.295,0.277,0.271,0.146,0.090,south,6.4,No
